GEFSMW_prec_meanprecacc_072.txt.gz
Total_Precipitation_Accumulation
0.13 0.15 0.19 0.22 0.22 0.22 0.25 0.31 0.34 0.42 0.50 0.58 0.72 0.94 1.21 1.31 1.40 1.35 1.17 1.12 1.24 1.48 1.66 1.59 1.59 1.54 1.35 1.25 1.26 1.34 1.20 0.87 0.54 0.46 0.35 0.22 0.13 0.11 0.12 0.10 0.08 0.06 0.07
0.07 0.07 0.10 0.13 0.15 0.15 0.17 0.22 0.30 0.39 0.48 0.57 0.75 0.91 1.05 1.05 1.22 1.36 1.33 1.23 1.22 1.37 1.51 1.73 1.76 1.63 1.58 1.66 1.65 1.84 1.87 1.39 0.90 0.79 0.78 0.56 0.38 0.19 0.12 0.12 0.10 0.08 0.10
0.06 0.06 0.06 0.08 0.09 0.10 0.12 0.15 0.22 0.32 0.45 0.61 0.85 1.06 1.25 1.33 1.38 1.30 1.37 1.37 1.28 1.31 1.39 1.55 1.69 1.66 1.67 1.71 1.78 2.03 2.33 2.01 1.46 1.13 1.16 0.92 0.77 0.55 0.24 0.13 0.13 0.12 0.11
0.09 0.06 0.06 0.07 0.07 0.08 0.09 0.12 0.20 0.35 0.56 0.77 1.03 1.29 1.49 1.53 1.42 1.45 1.48 1.35 1.26 1.22 1.28 1.41 1.54 1.63 1.62 1.70 1.75 1.80 2.17 2.36 2.03 1.67 1.29 0.97 0.81 0.78 0.59 0.32 0.21 0.21 0.16
0.13 0.12 0.11 0.12 0.13 0.14 0.16 0.23 0.43 0.68 0.93 1.14 1.40 1.70 1.70 1.58 1.49 1.48 1.45 1.39 1.37 1.35 1.33 1.46 1.51 1.51 1.55 1.63 1.88 2.06 2.26 2.35 2.24 2.07 1.85 1.59 1.24 0.82 0.78 0.76 0.51 0.35 0.25
0.22 0.27 0.31 0.37 0.41 0.44 0.58 0.79 1.05 1.24 1.33 1.45 1.60 1.73 1.70 1.72 1.66 1.47 1.38 1.36 1.39 1.43 1.49 1.55 1.52 1.47 1.49 1.57 1.75 1.96 2.15 2.36 2.44 2.24 1.98 1.83 1.63 1.34 1.13 0.89 0.79 0.67 0.46
0.33 0.45 0.61 0.74 0.84 0.96 1.08 1.22 1.42 1.56 1.50 1.47 1.52 1.56 1.57 1.57 1.55 1.49 1.39 1.33 1.33 1.35 1.38 1.48 1.58 1.64 1.65 1.73 1.85 1.95 1.86 2.03 2.30 2.21 2.00 1.84 1.61 1.50 1.43 1.22 0.96 0.84 0.54
0.52 0.63 0.72 0.83 1.00 1.14 1.19 1.19 1.30 1.40 1.36 1.33 1.31 1.28 1.34 1.37 1.33 1.25 1.24 1.27 1.33 1.31 1.24 1.27 1.38 1.51 1.65 1.66 1.68 1.66 1.60 1.70 1.87 1.91 2.01 2.04 1.79 1.57 1.39 1.25 1.17 0.96 0.77
0.79 0.94 1.04 1.17 1.21 1.25 1.30 1.22 1.21 1.25 1.25 1.17 1.09 1.09 1.15 1.20 1.22 1.17 1.19 1.16 1.15 1.07 1.00 1.00 1.02 1.09 1.16 1.20 1.33 1.39 1.46 1.47 1.56 1.65 1.77 1.90 1.96 1.82 1.55 1.40 1.28 1.15 0.98
1.03 1.32 1.57 1.74 1.57 1.30 1.18 1.13 1.06 1.06 1.14 1.11 1.04 1.01 1.10 1.11 1.09 1.13 1.10 1.09 1.08 0.98 0.90 0.86 0.80 0.76 0.73 0.76 0.92 1.09 1.18 1.26 1.39 1.52 1.61 1.64 1.70 1.83 1.74 1.53 1.44 1.29 1.10
1.19 1.34 1.53 1.70 1.60 1.28 1.05 1.05 1.06 1.01 0.99 0.99 1.01 1.00 0.99 0.90 0.89 0.94 0.95 0.94 0.94 0.96 0.93 0.84 0.76 0.82 0.81 0.76 0.80 0.84 0.87 0.94 1.06 1.19 1.28 1.39 1.64 1.92 1.90 1.81 1.66 1.49 1.29
1.10 1.09 1.13 1.20 1.21 1.06 0.87 0.83 0.96 1.01 0.95 0.92 0.95 0.94 0.85 0.81 0.77 0.76 0.73 0.66 0.63 0.66 0.73 0.79 0.72 0.71 0.73 0.72 0.77 0.81 0.82 0.82 0.87 0.95 1.04 1.15 1.44 1.78 1.96 2.02 1.91 1.74 1.54
1.07 1.03 0.95 0.88 0.91 0.88 0.80 0.76 0.89 1.03 1.05 1.00 0.86 0.78 0.74 0.71 0.69 0.61 0.57 0.55 0.49 0.49 0.53 0.60 0.59 0.65 0.70 0.72 0.73 0.74 0.78 0.81 0.87 0.98 1.01 0.99 1.14 1.35 1.56 1.73 1.81 1.80 1.75
0.77 0.71 0.66 0.61 0.60 0.63 0.67 0.73 0.83 0.90 1.02 1.11 1.01 0.86 0.77 0.70 0.64 0.56 0.54 0.51 0.49 0.50 0.56 0.67 0.71 0.66 0.60 0.63 0.72 0.73 0.69 0.70 0.75 0.80 0.85 0.89 0.89 1.01 1.15 1.29 1.44 1.63 1.80
0.38 0.37 0.36 0.34 0.33 0.33 0.34 0.43 0.55 0.70 0.89 1.09 1.07 0.92 0.86 0.78 0.65 0.60 0.60 0.57 0.61 0.56 0.57 0.67 0.78 0.84 0.78 0.74 0.79 0.75 0.71 0.70 0.70 0.72 0.71 0.76 0.76 0.77 0.87 0.92 1.10 1.41 1.64
0.25 0.24 0.22 0.20 0.16 0.14 0.16 0.17 0.25 0.42 0.59 0.75 0.81 0.77 0.69 0.61 0.58 0.57 0.55 0.52 0.50 0.47 0.46 0.49 0.56 0.65 0.70 0.89 0.83 0.64 0.59 0.63 0.68 0.73 0.71 0.71 0.65 0.63 0.65 0.72 0.79 0.99 1.19
0.19 0.18 0.19 0.18 0.17 0.16 0.14 0.14 0.17 0.24 0.35 0.47 0.56 0.55 0.49 0.43 0.40 0.45 0.45 0.43 0.39 0.40 0.37 0.36 0.36 0.42 0.57 0.64 0.48 0.46 0.49 0.59 0.67 0.73 0.74 0.72 0.67 0.68 0.68 0.66 0.65 0.68 0.77
0.18 0.16 0.16 0.15 0.13 0.12 0.11 0.11 0.14 0.17 0.18 0.22 0.26 0.27 0.28 0.27 0.29 0.31 0.32 0.33 0.32 0.30 0.29 0.36 0.43 0.44 0.45 0.50 0.40 0.39 0.48 0.64 0.74 0.72 0.65 0.70 0.72 0.76 0.79 0.69 0.71 0.67 0.67
0.09 0.08 0.07 0.06 0.05 0.04 0.04 0.04 0.05 0.05 0.05 0.06 0.08 0.10 0.12 0.14 0.17 0.18 0.21 0.30 0.33 0.34 0.37 0.48 0.55 0.48 0.40 0.43 0.43 0.47 0.61 0.72 0.79 0.73 0.71 0.76 0.78 0.90 0.92 0.81 0.84 0.79 0.75
0.02 0.02 0.01 0.01 0.01 0.00 0.00 0.00 0.00 0.00 0.00 0.00 0.00 0.01 0.01 0.02 0.05 0.08 0.11 0.17 0.24 0.31 0.38 0.40 0.37 0.37 0.42 0.47 0.45 0.54 0.72 0.83 0.92 0.87 0.84 1.02 0.98 0.93 0.85 0.80 0.90 0.89 0.73
0.00 0.00 0.00 0.00 0.00 0.00 0.00 0.00 0.00 0.00 0.00 0.00 0.00 0.00 0.00 0.00 0.01 0.02 0.03 0.06 0.11 0.15 0.17 0.18 0.21 0.28 0.44 0.50 0.50 0.68 0.77 0.82 0.96 0.97 0.91 0.85 0.98 0.89 0.80 0.77 0.77 0.87 0.72
0.00 0.00 0.00 0.00 0.00 0.00 0.00 0.00 0.00 0.00 0.00 0.00 0.00 0.00 0.00 0.00 0.01 0.01 0.02 0.02 0.04 0.06 0.10 0.12 0.15 0.21 0.29 0.36 0.41 0.54 0.65 0.72 0.89 0.94 0.84 0.75 0.97 0.90 0.76 0.67 0.66 0.74 0.74
0.00 0.00 0.00 0.00 0.00 0.00 0.00 0.00 0.00 0.00 0.00 0.00 0.00 0.00 0.00 0.01 0.01 0.01 0.01 0.02 0.03 0.06 0.07 0.11 0.17 0.23 0.27 0.28 0.33 0.40 0.48 0.58 0.76 0.81 0.82 0.84 0.86 0.74 0.64 0.70 0.68 0.66 0.68
0.00 0.00 0.00 0.00 0.00 0.00 0.00 0.00 0.00 0.00 0.00 0.00 0.00 0.00 0.01 0.01 0.01 0.01 0.02 0.02 0.02 0.05 0.08 0.15 0.21 0.24 0.27 0.28 0.33 0.40 0.44 0.52 0.59 0.61 0.65 0.69 0.66 0.63 0.60 0.61 0.65 0.64 0.64
0.00 0.00 0.00 0.00 0.00 0.00 0.00 0.00 0.00 0.00 0.00 0.00 0.00 0.00 0.01 0.01 0.01 0.01 0.01 0.02 0.02 0.04 0.10 0.14 0.17 0.18 0.20 0.23 0.29 0.41 0.48 0.58 0.67 0.66 0.58 0.59 0.60 0.59 0.54 0.51 0.52 0.52 0.48
0.00 0.00 0.00 0.00 0.00 0.00 0.00 0.00 0.00 0.00 0.00 0.00 0.00 0.00 0.01 0.01 0.01 0.02 0.02 0.01 0.01 0.02 0.04 0.05 0.08 0.14 0.16 0.13 0.14 0.24 0.38 0.53 0.73 0.93 0.90 0.88 0.84 0.75 0.62 0.47 0.36 0.32 0.34

GEFSMW_prec_meanprecacc_078.txt.gz
Total_Precipitation_Accumulation
0.13 0.15 0.19 0.22 0.22 0.22 0.25 0.31 0.34 0.42 0.50 0.58 0.73 0.95 1.22 1.33 1.42 1.37 1.20 1.14 1.26 1.49 1.68 1.61 1.62 1.61 1.44 1.36 1.41 1.54 1.42 1.09 0.79 0.69 0.54 0.36 0.23 0.22 0.20 0.16 0.15 0.15 0.16
0.07 0.07 0.10 0.13 0.15 0.15 0.17 0.22 0.30 0.39 0.48 0.57 0.75 0.91 1.06 1.07 1.23 1.39 1.36 1.27 1.25 1.39 1.52 1.75 1.78 1.68 1.66 1.75 1.78 2.02 2.07 1.58 1.12 1.01 1.01 0.76 0.54 0.31 0.20 0.17 0.16 0.15 0.21
0.06 0.06 0.06 0.08 0.09 0.10 0.12 0.15 0.22 0.32 0.45 0.61 0.85 1.07 1.26 1.34 1.40 1.32 1.41 1.41 1.33 1.35 1.43 1.58 1.72 1.70 1.73 1.77 1.87 2.16 2.50 2.20 1.66 1.34 1.38 1.10 0.92 0.71 0.33 0.20 0.18 0.16 0.19
0.09 0.06 0.06 0.07 0.07 0.08 0.09 0.12 0.20 0.35 0.56 0.78 1.04 1.30 1.50 1.53 1.43 1.47 1.50 1.37 1.29 1.25 1.31 1.44 1.57 1.66 1.66 1.75 1.81 1.89 2.30 2.54 2.22 1.87 1.47 1.13 0.99 0.98 0.75 0.43 0.29 0.27 0.22
0.13 0.12 0.11 0.12 0.13 0.14 0.16 0.23 0.43 0.68 0.93 1.14 1.41 1.70 1.70 1.59 1.50 1.49 1.46 1.40 1.39 1.37 1.36 1.49 1.54 1.54 1.59 1.67 1.93 2.14 2.37 2.49 2.40 2.24 2.01 1.75 1.42 0.99 0.97 0.93 0.66 0.49 0.36
0.22 0.27 0.31 0.37 0.41 0.44 0.58 0.79 1.05 1.24 1.33 1.46 1.61 1.73 1.71 1.72 1.66 1.48 1.38 1.37 1.41 1.47 1.52 1.57 1.55 1.50 1.53 1.61 1.79 2.02 2.23 2.47 2.59 2.43 2.17 2.00 1.78 1.47 1.28 1.06 0.97 0.85 0.62
0.33 0.45 0.61 0.74 0.84 0.96 1.08 1.22 1.42 1.56 1.50 1.47 1.52 1.56 1.57 1.57 1.56 1.50 1.40 1.34 1.35 1.36 1.40 1.50 1.61 1.67 1.69 1.76 1.90 2.00 1.92 2.11 2.42 2.36 2.18 2.04 1.77 1.65 1.61 1.41 1.16 1.03 0.71
0.52 0.63 0.72 0.83 1.00 1.14 1.19 1.19 1.30 1.40 1.36 1.33 1.31 1.28 1.34 1.37 1.34 1.26 1.25 1.28 1.34 1.32 1.26 1.30 1.40 1.53 1.68 1.70 1.72 1.71 1.65 1.77 1.96 2.01 2.17 2.23 1.96 1.75 1.55 1.41 1.37 1.14 0.94
0.79 0.94 1.04 1.17 1.21 1.25 1.30 1.22 1.21 1.25 1.25 1.17 1.09 1.09 1.15 1.20 1.23 1.17 1.19 1.17 1.16 1.08 1.01 1.01 1.04 1.11 1.18 1.23 1.37 1.45 1.53 1.54 1.65 1.76 1.90 2.04 2.11 1.98 1.71 1.56 1.46 1.33 1.15
1.03 1.32 1.57 1.74 1.57 1.30 1.18 1.13 1.06 1.06 1.14 1.11 1.04 1.01 1.10 1.11 1.10 1.13 1.10 1.10 1.09 1.00 0.93 0.88 0.83 0.79 0.76 0.79 0.97 1.15 1.26 1.35 1.47 1.62 1.72 1.76 1.83 1.99 1.91 1.70 1.59 1.44 1.26
1.19 1.34 1.53 1.70 1.60 1.28 1.05 1.05 1.06 1.01 0.99 0.99 1.01 1.00 0.99 0.90 0.89 0.94 0.95 0.94 0.95 0.98 0.96 0.87 0.81 0.86 0.85 0.80 0.85 0.90 0.95 1.03 1.15 1.27 1.36 1.49 1.75 2.05 2.05 1.98 1.82 1.62 1.43
1.10 1.09 1.13 1.20 1.21 1.06 0.87 0.83 0.96 1.01 0.95 0.92 0.95 0.94 0.85 0.81 0.77 0.76 0.73 0.66 0.64 0.67 0.75 0.82 0.77 0.75 0.77 0.77 0.81 0.84 0.88 0.89 0.96 1.03 1.13 1.25 1.55 1.92 2.11 2.17 2.05 1.87 1.67
1.07 1.03 0.95 0.88 0.91 0.88 0.80 0.76 0.89 1.03 1.05 1.00 0.86 0.78 0.74 0.71 0.69 0.61 0.57 0.55 0.50 0.50 0.54 0.62 0.62 0.70 0.76 0.78 0.79 0.79 0.83 0.86 0.93 1.05 1.08 1.09 1.26 1.47 1.71 1.89 1.96 1.92 1.88
0.77 0.71 0.66 0.61 0.60 0.63 0.67 0.73 0.83 0.90 1.02 1.11 1.01 0.86 0.77 0.70 0.64 0.57 0.54 0.51 0.49 0.51 0.57 0.69 0.74 0.68 0.64 0.68 0.78 0.79 0.74 0.74 0.79 0.85 0.92 0.98 0.99 1.12 1.30 1.45 1.61 1.78 1.95
0.38 0.37 0.36 0.34 0.33 0.33 0.34 0.43 0.55 0.70 0.89 1.09 1.07 0.92 0.86 0.78 0.65 0.60 0.60 0.58 0.61 0.57 0.58 0.69 0.80 0.86 0.80 0.76 0.82 0.78 0.75 0.75 0.75 0.78 0.77 0.83 0.84 0.86 1.00 1.07 1.28 1.57 1.80
0.25 0.24 0.22 0.20 0.16 0.14 0.16 0.17 0.25 0.42 0.59 0.75 0.81 0.77 0.69 0.61 0.58 0.57 0.55 0.52 0.51 0.47 0.47 0.50 0.58 0.67 0.71 0.90 0.83 0.66 0.62 0.66 0.72 0.77 0.77 0.77 0.70 0.68 0.70 0.80 0.93 1.18 1.36
0.19 0.18 0.19 0.18 0.17 0.16 0.14 0.14 0.17 0.24 0.35 0.47 0.56 0.55 0.49 0.43 0.40 0.45 0.45 0.43 0.39 0.40 0.38 0.37 0.37 0.44 0.59 0.65 0.49 0.46 0.51 0.62 0.72 0.78 0.81 0.77 0.71 0.74 0.73 0.71 0.70 0.76 0.90
0.18 0.16 0.16 0.15 0.13 0.12 0.11 0.11 0.14 0.17 0.18 0.22 0.26 0.27 0.28 0.27 0.29 0.31 0.32 0.33 0.32 0.30 0.29 0.36 0.44 0.45 0.47 0.51 0.41 0.40 0.50 0.68 0.79 0.77 0.72 0.76 0.78 0.81 0.85 0.76 0.78 0.73 0.72
0.09 0.08 0.07 0.06 0.05 0.04 0.04 0.04 0.05 0.05 0.05 0.06 0.08 0.10 0.12 0.14 0.17 0.18 0.21 0.30 0.33 0.34 0.37 0.48 0.56 0.49 0.41 0.44 0.44 0.49 0.65 0.77 0.84 0.80 0.77 0.82 0.84 0.97 0.98 0.87 0.91 0.88 0.83
0.02 0.02 0.01 0.01 0.01 0.00 0.00 0.00 0.00 0.00 0.00 0.00 0.00 0.01 0.01 0.02 0.05 0.08 0.11 0.17 0.24 0.31 0.38 0.40 0.37 0.37 0.43 0.48 0.46 0.56 0.76 0.88 0.99 0.94 0.91 1.07 1.01 0.96 0.89 0.86 0.99 0.98 0.81
0.00 0.00 0.00 0.00 0.00 0.00 0.00 0.00 0.00 0.00 0.00 0.00 0.00 0.00 0.00 0.00 0.01 0.02 0.03 0.06 0.11 0.15 0.17 0.19 0.22 0.29 0.45 0.50 0.51 0.70 0.79 0.85 1.00 1.02 0.97 0.89 0.99 0.91 0.82 0.83 0.88 1.01 0.86
0.00 0.00 0.00 0.00 0.00 0.00 0.00 0.00 0.00 0.00 0.00 0.00 0.00 0.00 0.00 0.00 0.01 0.01 0.02 0.02 0.04 0.06 0.10 0.12 0.16 0.22 0.30 0.37 0.42 0.55 0.67 0.74 0.91 0.99 0.89 0.79 0.99 0.92 0.81 0.75 0.76 0.87 0.90
0.00 0.00 0.00 0.00 0.00 0.00 0.00 0.00 0.00 0.00 0.00 0.00 0.00 0.00 0.00 0.01 0.01 0.01 0.01 0.02 0.03 0.06 0.07 0.11 0.17 0.23 0.27 0.28 0.34 0.41 0.49 0.61 0.79 0.85 0.86 0.86 0.89 0.78 0.71 0.80 0.80 0.79 0.83
0.00 0.00 0.00 0.00 0.00 0.00 0.00 0.00 0.00 0.00 0.00 0.00 0.00 0.00 0.01 0.01 0.01 0.01 0.02 0.02 0.02 0.05 0.08 0.15 0.21 0.24 0.27 0.28 0.34 0.42 0.46 0.55 0.64 0.66 0.70 0.73 0.69 0.67 0.67 0.71 0.79 0.81 0.83
0.00 0.00 0.00 0.00 0.00 0.00 0.00 0.00 0.00 0.00 0.00 0.00 0.00 0.00 0.01 0.01 0.01 0.01 0.01 0.02 0.02 0.04 0.10 0.14 0.17 0.18 0.20 0.23 0.30 0.41 0.49 0.60 0.70 0.71 0.65 0.67 0.66 0.65 0.62 0.63 0.65 0.67 0.64
0.00 0.00 0.00 0.00 0.00 0.00 0.00 0.00 0.00 0.00 0.00 0.00 0.00 0.00 0.01 0.01 0.01 0.02 0.02 0.01 0.01 0.02 0.04 0.05 0.08 0.14 0.16 0.13 0.14 0.24 0.38 0.54 0.74 0.95 0.97 0.98 0.91 0.81 0.70 0.58 0.49 0.44 0.46

GEFSMW_prec_meanprecacc_084.txt.gz
Total_Precipitation_Accumulation
0.13 0.15 0.19 0.22 0.22 0.22 0.25 0.31 0.34 0.42 0.50 0.58 0.73 0.95 1.22 1.33 1.42 1.38 1.20 1.15 1.27 1.50 1.68 1.62 1.63 1.62 1.46 1.39 1.46 1.60 1.51 1.20 0.92 0.85 0.68 0.49 0.38 0.39 0.36 0.33 0.31 0.30 0.31
0.07 0.07 0.10 0.13 0.15 0.15 0.17 0.22 0.30 0.39 0.48 0.57 0.75 0.91 1.06 1.07 1.24 1.40 1.37 1.28 1.27 1.41 1.53 1.76 1.80 1.70 1.67 1.77 1.81 2.07 2.14 1.69 1.26 1.16 1.16 0.88 0.66 0.44 0.33 0.33 0.30 0.30 0.39
0.06 0.06 0.06 0.08 0.09 0.10 0.12 0.15 0.22 0.32 0.45 0.61 0.85 1.07 1.26 1.34 1.40 1.33 1.42 1.42 1.34 1.36 1.43 1.58 1.72 1.71 1.74 1.79 1.89 2.19 2.56 2.28 1.78 1.48 1.54 1.21 1.00 0.82 0.44 0.30 0.30 0.31 0.39
0.09 0.06 0.06 0.07 0.07 0.08 0.09 0.12 0.20 0.35 0.56 0.78 1.04 1.30 1.50 1.53 1.43 1.47 1.50 1.38 1.30 1.25 1.32 1.45 1.57 1.67 1.67 1.76 1.82 1.92 2.34 2.59 2.28 1.98 1.59 1.23 1.07 1.06 0.82 0.50 0.39 0.41 0.40
0.13 0.12 0.11 0.12 0.13 0.14 0.16 0.23 0.43 0.68 0.93 1.14 1.41 1.70 1.70 1.59 1.50 1.50 1.46 1.40 1.40 1.37 1.37 1.49 1.55 1.54 1.59 1.68 1.94 2.15 2.40 2.53 2.44 2.31 2.10 1.85 1.52 1.08 1.03 0.97 0.72 0.60 0.51
0.22 0.27 0.31 0.37 0.41 0.44 0.58 0.79 1.05 1.24 1.33 1.46 1.61 1.73 1.71 1.72 1.66 1.48 1.38 1.37 1.41 1.47 1.52 1.57 1.55 1.51 1.53 1.61 1.80 2.03 2.24 2.50 2.62 2.48 2.24 2.08 1.87 1.56 1.35 1.10 1.01 0.93 0.73
0.33 0.45 0.61 0.74 0.84 0.96 1.08 1.22 1.42 1.56 1.50 1.47 1.52 1.56 1.57 1.57 1.56 1.50 1.40 1.34 1.35 1.36 1.40 1.51 1.61 1.67 1.69 1.77 1.90 2.00 1.92 2.13 2.44 2.39 2.24 2.11 1.84 1.73 1.70 1.49 1.22 1.08 0.79
0.52 0.63 0.72 0.83 1.00 1.14 1.19 1.19 1.30 1.40 1.36 1.33 1.31 1.28 1.34 1.37 1.34 1.26 1.25 1.28 1.34 1.32 1.26 1.30 1.40 1.53 1.68 1.70 1.73 1.72 1.66 1.78 1.98 2.05 2.22 2.30 2.02 1.81 1.62 1.48 1.44 1.19 0.99
0.79 0.94 1.04 1.17 1.21 1.25 1.30 1.22 1.21 1.25 1.25 1.17 1.09 1.09 1.15 1.20 1.23 1.18 1.19 1.17 1.16 1.08 1.01 1.01 1.04 1.11 1.18 1.24 1.38 1.46 1.53 1.56 1.67 1.79 1.93 2.08 2.17 2.05 1.77 1.63 1.52 1.39 1.19
1.03 1.32 1.57 1.74 1.57 1.30 1.18 1.13 1.06 1.06 1.14 1.11 1.04 1.01 1.10 1.11 1.10 1.13 1.10 1.10 1.09 1.00 0.93 0.88 0.83 0.79 0.76 0.80 0.98 1.16 1.27 1.36 1.49 1.64 1.74 1.78 1.86 2.05 1.98 1.76 1.66 1.50 1.30
1.19 1.34 1.53 1.70 1.60 1.28 1.05 1.05 1.06 1.01 0.99 0.99 1.01 1.00 0.99 0.90 0.89 0.94 0.95 0.94 0.95 0.98 0.96 0.88 0.81 0.87 0.85 0.80 0.86 0.92 0.97 1.05 1.17 1.31 1.39 1.51 1.78 2.09 2.10 2.04 1.88 1.69 1.49
1.10 1.09 1.13 1.20 1.21 1.06 0.87 0.83 0.96 1.01 0.95 0.92 0.95 0.94 0.85 0.81 0.77 0.76 0.73 0.66 0.64 0.67 0.75 0.83 0.78 0.76 0.78 0.77 0.82 0.85 0.89 0.91 0.98 1.06 1.15 1.28 1.58 1.95 2.16 2.23 2.11 1.92 1.73
1.07 1.03 0.95 0.88 0.91 0.88 0.80 0.76 0.89 1.03 1.05 1.00 0.86 0.78 0.74 0.71 0.69 0.61 0.57 0.55 0.50 0.50 0.54 0.62 0.63 0.72 0.78 0.79 0.80 0.81 0.84 0.87 0.95 1.07 1.10 1.12 1.29 1.50 1.74 1.92 2.01 1.98 1.94
0.77 0.71 0.66 0.61 0.60 0.63 0.67 0.73 0.83 0.90 1.02 1.11 1.01 0.86 0.77 0.70 0.64 0.57 0.54 0.51 0.49 0.51 0.57 0.69 0.74 0.69 0.66 0.71 0.80 0.82 0.76 0.76 0.80 0.87 0.94 1.00 1.02 1.15 1.33 1.47 1.65 1.84 2.02
0.38 0.37 0.36 0.34 0.33 0.33 0.34 0.43 0.55 0.70 0.89 1.09 1.07 0.92 0.86 0.78 0.65 0.60 0.60 0.58 0.61 0.57 0.58 0.69 0.80 0.86 0.81 0.78 0.84 0.80 0.78 0.77 0.76 0.80 0.79 0.85 0.86 0.89 1.03 1.09 1.31 1.63 1.87
0.25 0.24 0.22 0.20 0.16 0.14 0.16 0.17 0.25 0.42 0.59 0.75 0.81 0.77 0.69 0.61 0.58 0.57 0.55 0.52 0.51 0.47 0.47 0.50 0.58 0.67 0.71 0.90 0.85 0.69 0.65 0.69 0.74 0.79 0.78 0.79 0.72 0.70 0.73 0.83 0.97 1.24 1.43
0.19 0.18 0.19 0.18 0.17 0.16 0.14 0.14 0.17 0.24 0.35 0.47 0.56 0.55 0.49 0.43 0.40 0.45 0.45 0.43 0.39 0.40 0.38 0.37 0.37 0.44 0.59 0.66 0.50 0.48 0.53 0.65 0.74 0.80 0.82 0.79 0.72 0.75 0.75 0.73 0.72 0.80 0.97
0.18 0.16 0.16 0.15 0.13 0.12 0.11 0.11 0.14 0.17 0.18 0.22 0.26 0.27 0.28 0.27 0.29 0.31 0.32 0.33 0.32 0.30 0.29 0.36 0.44 0.46 0.47 0.51 0.42 0.41 0.51 0.70 0.81 0.79 0.74 0.78 0.80 0.83 0.86 0.77 0.79 0.74 0.76
0.09 0.08 0.07 0.06 0.05 0.04 0.04 0.04 0.05 0.05 0.05 0.06 0.08 0.10 0.12 0.14 0.17 0.18 0.21 0.30 0.33 0.34 0.37 0.48 0.56 0.49 0.41 0.44 0.44 0.50 0.66 0.78 0.85 0.81 0.79 0.85 0.86 0.99 0.99 0.88 0.92 0.88 0.84
0.02 0.02 0.01 0.01 0.01 0.00 0.00 0.00 0.00 0.00 0.00 0.00 0.00 0.01 0.01 0.02 0.05 0.08 0.11 0.17 0.24 0.31 0.38 0.40 0.38 0.38 0.43 0.49 0.46 0.57 0.77 0.89 0.99 0.95 0.93 1.09 1.02 0.97 0.90 0.86 1.00 0.98 0.82
0.00 0.00 0.00 0.00 0.00 0.00 0.00 0.00 0.00 0.00 0.00 0.00 0.00 0.00 0.00 0.00 0.01 0.02 0.03 0.06 0.11 0.15 0.17 0.19 0.22 0.29 0.45 0.51 0.52 0.70 0.79 0.85 1.00 1.02 0.98 0.91 1.00 0.92 0.83 0.83 0.89 1.02 0.88
0.00 0.00 0.00 0.00 0.00 0.00 0.00 0.00 0.00 0.00 0.00 0.00 0.00 0.00 0.00 0.00 0.01 0.01 0.02 0.02 0.04 0.06 0.10 0.12 0.16 0.22 0.30 0.37 0.43 0.56 0.68 0.75 0.92 0.99 0.89 0.80 1.00 0.93 0.82 0.75 0.77 0.89 0.93
0.00 0.00 0.00 0.00 0.00 0.00 0.00 0.00 0.00 0.00 0.00 0.00 0.00 0.00 0.00 0.01 0.01 0.01 0.01 0.02 0.03 0.06 0.07 0.11 0.17 0.23 0.27 0.28 0.34 0.42 0.50 0.62 0.80 0.86 0.87 0.87 0.89 0.79 0.71 0.81 0.82 0.82 0.85
0.00 0.00 0.00 0.00 0.00 0.00 0.00 0.00 0.00 0.00 0.00 0.00 0.00 0.00 0.01 0.01 0.01 0.01 0.02 0.02 0.02 0.05 0.08 0.15 0.21 0.24 0.27 0.28 0.34 0.42 0.46 0.55 0.64 0.66 0.70 0.73 0.69 0.67 0.67 0.72 0.81 0.83 0.86
0.00 0.00 0.00 0.00 0.00 0.00 0.00 0.00 0.00 0.00 0.00 0.00 0.00 0.00 0.01 0.01 0.01 0.01 0.01 0.02 0.02 0.04 0.10 0.14 0.17 0.18 0.20 0.23 0.30 0.41 0.49 0.60 0.70 0.71 0.65 0.68 0.67 0.65 0.63 0.65 0.67 0.69 0.67
0.00 0.00 0.00 0.00 0.00 0.00 0.00 0.00 0.00 0.00 0.00 0.00 0.00 0.00 0.01 0.01 0.01 0.02 0.02 0.01 0.01 0.02 0.04 0.05 0.08 0.14 0.16 0.13 0.14 0.24 0.38 0.54 0.74 0.95 0.98 0.98 0.92 0.82 0.71 0.60 0.52 0.48 0.49

GEFSMW_prec_meanprecacc_090.txt.gz
Total_Precipitation_Accumulation
0.13 0.15 0.19 0.22 0.22 0.22 0.25 0.31 0.34 0.42 0.50 0.58 0.73 0.95 1.22 1.33 1.42 1.38 1.20 1.15 1.27 1.51 1.69 1.63 1.64 1.63 1.47 1.40 1.48 1.63 1.55 1.25 0.97 0.91 0.74 0.56 0.44 0.44 0.42 0.40 0.38 0.36 0.38
0.07 0.07 0.10 0.13 0.15 0.15 0.17 0.22 0.30 0.39 0.48 0.57 0.75 0.91 1.06 1.07 1.24 1.40 1.37 1.28 1.28 1.41 1.54 1.77 1.81 1.71 1.68 1.78 1.82 2.09 2.17 1.74 1.32 1.22 1.25 0.96 0.74 0.50 0.38 0.38 0.36 0.36 0.47
0.06 0.06 0.06 0.08 0.09 0.10 0.12 0.15 0.22 0.32 0.45 0.61 0.85 1.07 1.26 1.34 1.40 1.33 1.42 1.42 1.35 1.37 1.44 1.59 1.73 1.71 1.75 1.80 1.91 2.21 2.59 2.32 1.84 1.56 1.63 1.29 1.07 0.89 0.49 0.33 0.35 0.38 0.46
0.09 0.06 0.06 0.07 0.07 0.08 0.09 0.12 0.20 0.35 0.56 0.78 1.04 1.30 1.50 1.54 1.43 1.47 1.50 1.38 1.30 1.26 1.32 1.45 1.58 1.67 1.67 1.77 1.84 1.94 2.36 2.62 2.32 2.04 1.67 1.31 1.13 1.13 0.90 0.55 0.44 0.49 0.48
0.13 0.12 0.11 0.12 0.13 0.14 0.16 0.23 0.43 0.68 0.93 1.14 1.41 1.70 1.70 1.59 1.50 1.50 1.46 1.40 1.40 1.38 1.37 1.50 1.55 1.55 1.59 1.68 1.95 2.16 2.40 2.54 2.46 2.35 2.17 1.93 1.58 1.14 1.11 1.04 0.78 0.65 0.57
0.22 0.27 0.31 0.37 0.41 0.44 0.58 0.79 1.05 1.24 1.33 1.46 1.61 1.73 1.71 1.72 1.66 1.48 1.38 1.37 1.41 1.47 1.52 1.57 1.55 1.51 1.53 1.62 1.80 2.03 2.24 2.51 2.64 2.50 2.29 2.13 1.91 1.59 1.41 1.16 1.06 0.97 0.78
0.33 0.45 0.61 0.74 0.84 0.96 1.08 1.22 1.42 1.56 1.50 1.47 1.52 1.56 1.57 1.57 1.56 1.50 1.40 1.34 1.35 1.37 1.40 1.51 1.61 1.67 1.69 1.77 1.90 2.00 1.93 2.13 2.46 2.41 2.27 2.14 1.87 1.77 1.75 1.55 1.27 1.12 0.82
0.52 0.63 0.72 0.83 1.00 1.14 1.19 1.19 1.30 1.40 1.36 1.33 1.31 1.28 1.34 1.37 1.34 1.26 1.25 1.28 1.34 1.32 1.26 1.30 1.40 1.54 1.68 1.70 1.73 1.72 1.66 1.78 1.99 2.06 2.24 2.32 2.04 1.84 1.66 1.52 1.49 1.24 1.02
0.79 0.94 1.04 1.17 1.21 1.25 1.30 1.22 1.21 1.25 1.25 1.17 1.09 1.09 1.15 1.20 1.23 1.18 1.19 1.17 1.16 1.08 1.01 1.01 1.04 1.11 1.18 1.24 1.38 1.46 1.54 1.56 1.67 1.80 1.94 2.09 2.19 2.08 1.80 1.66 1.56 1.44 1.23
1.03 1.32 1.57 1.74 1.57 1.30 1.18 1.13 1.06 1.06 1.14 1.11 1.04 1.01 1.10 1.11 1.10 1.13 1.10 1.10 1.09 1.00 0.93 0.89 0.84 0.79 0.76 0.80 0.98 1.16 1.27 1.36 1.49 1.65 1.76 1.79 1.87 2.06 2.01 1.79 1.70 1.55 1.34
1.19 1.34 1.53 1.70 1.60 1.28 1.05 1.05 1.06 1.01 0.99 0.99 1.01 1.00 0.99 0.90 0.89 0.94 0.95 0.94 0.95 0.98 0.96 0.88 0.81 0.88 0.86 0.81 0.86 0.92 0.97 1.05 1.17 1.31 1.40 1.52 1.79 2.10 2.12 2.06 1.91 1.72 1.52
1.10 1.09 1.13 1.20 1.21 1.06 0.87 0.83 0.96 1.01 0.95 0.92 0.95 0.94 0.85 0.81 0.77 0.76 0.73 0.66 0.64 0.67 0.75 0.83 0.78 0.77 0.79 0.79 0.83 0.85 0.89 0.91 0.98 1.06 1.16 1.28 1.59 1.95 2.17 2.25 2.14 1.95 1.76
1.07 1.03 0.95 0.88 0.91 0.88 0.80 0.76 0.89 1.03 1.05 1.00 0.86 0.78 0.74 0.71 0.69 0.61 0.57 0.55 0.50 0.50 0.54 0.62 0.63 0.72 0.78 0.80 0.81 0.81 0.84 0.87 0.95 1.08 1.11 1.13 1.30 1.51 1.75 1.94 2.04 2.01 1.98
0.77 0.71 0.66 0.61 0.60 0.63 0.67 0.73 0.83 0.90 1.02 1.11 1.01 0.86 0.77 0.70 0.64 0.57 0.54 0.51 0.49 0.51 0.57 0.69 0.74 0.69 0.66 0.71 0.80 0.82 0.76 0.76 0.81 0.88 0.95 1.01 1.03 1.17 1.35 1.49 1.67 1.86 2.05
0.38 0.37 0.36 0.34 0.33 0.33 0.34 0.43 0.55 0.70 0.89 1.09 1.07 0.92 0.86 0.78 0.65 0.60 0.60 0.58 0.61 0.57 0.58 0.69 0.80 0.87 0.82 0.78 0.85 0.80 0.78 0.78 0.77 0.81 0.80 0.85 0.87 0.90 1.05 1.11 1.33 1.64 1.88
0.25 0.24 0.22 0.20 0.16 0.14 0.16 0.17 0.25 0.42 0.59 0.75 0.81 0.77 0.69 0.61 0.58 0.57 0.55 0.52 0.51 0.47 0.47 0.50 0.58 0.67 0.72 0.91 0.86 0.69 0.66 0.69 0.75 0.79 0.79 0.79 0.72 0.71 0.75 0.85 0.98 1.26 1.44
0.19 0.18 0.19 0.18 0.17 0.16 0.14 0.14 0.17 0.24 0.35 0.47 0.56 0.55 0.49 0.43 0.40 0.45 0.45 0.43 0.39 0.40 0.38 0.37 0.37 0.44 0.59 0.66 0.51 0.49 0.54 0.66 0.75 0.81 0.83 0.81 0.75 0.77 0.76 0.74 0.74 0.81 0.99
0.18 0.16 0.16 0.15 0.13 0.12 0.11 0.11 0.14 0.17 0.18 0.22 0.26 0.27 0.28 0.27 0.29 0.31 0.32 0.33 0.32 0.30 0.29 0.36 0.44 0.46 0.47 0.52 0.42 0.41 0.52 0.70 0.81 0.79 0.75 0.81 0.82 0.85 0.88 0.78 0.80 0.75 0.76
0.09 0.08 0.07 0.06 0.05 0.04 0.04 0.04 0.05 0.05 0.05 0.06 0.08 0.10 0.12 0.14 0.17 0.18 0.21 0.30 0.33 0.34 0.37 0.48 0.56 0.49 0.41 0.44 0.45 0.50 0.66 0.78 0.85 0.81 0.80 0.87 0.88 1.00 1.01 0.89 0.93 0.88 0.84
0.02 0.02 0.01 0.01 0.01 0.00 0.00 0.00 0.00 0.00 0.00 0.00 0.00 0.01 0.01 0.02 0.05 0.08 0.11 0.17 0.24 0.31 0.38 0.40 0.38 0.38 0.43 0.49 0.46 0.57 0.77 0.89 0.99 0.95 0.93 1.10 1.04 0.98 0.91 0.87 1.00 0.99 0.82
0.00 0.00 0.00 0.00 0.00 0.00 0.00 0.00 0.00 0.00 0.00 0.00 0.00 0.00 0.00 0.00 0.01 0.02 0.03 0.06 0.11 0.15 0.17 0.19 0.22 0.29 0.45 0.51 0.52 0.70 0.79 0.85 1.00 1.03 0.98 0.91 1.02 0.93 0.84 0.84 0.89 1.02 0.88
0.00 0.00 0.00 0.00 0.00 0.00 0.00 0.00 0.00 0.00 0.00 0.00 0.00 0.00 0.00 0.00 0.01 0.01 0.02 0.02 0.04 0.06 0.10 0.12 0.16 0.22 0.30 0.37 0.43 0.56 0.68 0.75 0.92 0.99 0.90 0.80 1.01 0.94 0.82 0.76 0.77 0.89 0.94
0.00 0.00 0.00 0.00 0.00 0.00 0.00 0.00 0.00 0.00 0.00 0.00 0.00 0.00 0.00 0.01 0.01 0.01 0.01 0.02 0.03 0.06 0.07 0.11 0.17 0.23 0.27 0.28 0.34 0.42 0.50 0.62 0.80 0.86 0.87 0.88 0.90 0.80 0.74 0.82 0.83 0.82 0.86
0.00 0.00 0.00 0.00 0.00 0.00 0.00 0.00 0.00 0.00 0.00 0.00 0.00 0.00 0.01 0.01 0.01 0.01 0.02 0.02 0.02 0.05 0.08 0.15 0.21 0.24 0.27 0.28 0.34 0.42 0.46 0.55 0.64 0.66 0.70 0.74 0.70 0.68 0.70 0.74 0.82 0.83 0.86
0.00 0.00 0.00 0.00 0.00 0.00 0.00 0.00 0.00 0.00 0.00 0.00 0.00 0.00 0.01 0.01 0.01 0.01 0.01 0.02 0.02 0.04 0.10 0.14 0.17 0.18 0.20 0.23 0.30 0.41 0.49 0.60 0.70 0.71 0.65 0.68 0.67 0.66 0.64 0.67 0.68 0.70 0.68
0.00 0.00 0.00 0.00 0.00 0.00 0.00 0.00 0.00 0.00 0.00 0.00 0.00 0.00 0.01 0.01 0.01 0.02 0.02 0.01 0.01 0.02 0.04 0.05 0.08 0.14 0.16 0.13 0.14 0.24 0.38 0.54 0.74 0.95 0.98 0.98 0.92 0.82 0.71 0.61 0.53 0.49 0.50

GEFSMW_prec_meanprecacc_096.txt.gz
Total_Precipitation_Accumulation
0.13 0.15 0.19 0.22 0.22 0.22 0.25 0.31 0.34 0.42 0.50 0.58 0.73 0.95 1.22 1.33 1.42 1.38 1.21 1.16 1.28 1.51 1.70 1.65 1.67 1.66 1.50 1.44 1.51 1.65 1.58 1.29 1.03 0.96 0.79 0.62 0.49 0.50 0.49 0.46 0.44 0.41 0.43
0.07 0.07 0.10 0.13 0.15 0.15 0.17 0.22 0.30 0.39 0.48 0.57 0.75 0.91 1.06 1.07 1.24 1.40 1.38 1.29 1.28 1.42 1.55 1.78 1.83 1.73 1.71 1.81 1.85 2.11 2.20 1.79 1.39 1.29 1.32 1.04 0.82 0.56 0.42 0.43 0.42 0.42 0.55
0.06 0.06 0.06 0.08 0.09 0.10 0.12 0.15 0.22 0.32 0.45 0.61 0.85 1.07 1.26 1.34 1.41 1.34 1.42 1.43 1.35 1.38 1.46 1.61 1.75 1.74 1.78 1.83 1.93 2.23 2.62 2.35 1.89 1.63 1.73 1.39 1.17 0.96 0.54 0.38 0.39 0.43 0.54
0.09 0.06 0.06 0.07 0.07 0.08 0.09 0.12 0.20 0.35 0.56 0.78 1.04 1.30 1.50 1.54 1.43 1.47 1.50 1.38 1.30 1.27 1.33 1.46 1.59 1.68 1.69 1.79 1.85 1.95 2.38 2.65 2.36 2.08 1.72 1.39 1.24 1.23 0.97 0.61 0.48 0.53 0.54
0.13 0.12 0.11 0.12 0.13 0.14 0.16 0.23 0.43 0.68 0.93 1.14 1.41 1.70 1.70 1.59 1.50 1.50 1.46 1.40 1.40 1.38 1.37 1.50 1.56 1.55 1.60 1.69 1.96 2.18 2.42 2.56 2.49 2.38 2.20 1.98 1.65 1.21 1.21 1.12 0.83 0.69 0.62
0.22 0.27 0.31 0.37 0.41 0.44 0.58 0.79 1.05 1.24 1.33 1.46 1.61 1.73 1.71 1.72 1.66 1.48 1.39 1.38 1.42 1.48 1.53 1.58 1.55 1.51 1.54 1.63 1.81 2.04 2.26 2.52 2.65 2.53 2.32 2.18 1.97 1.66 1.49 1.25 1.12 1.02 0.82
0.33 0.45 0.61 0.74 0.84 0.96 1.08 1.22 1.42 1.56 1.50 1.47 1.52 1.56 1.57 1.57 1.56 1.50 1.40 1.34 1.35 1.37 1.40 1.51 1.62 1.68 1.69 1.77 1.91 2.01 1.93 2.14 2.48 2.43 2.29 2.18 1.92 1.83 1.82 1.63 1.35 1.17 0.86
0.52 0.63 0.72 0.83 1.00 1.14 1.19 1.19 1.30 1.40 1.36 1.33 1.31 1.28 1.34 1.37 1.34 1.26 1.25 1.28 1.35 1.32 1.26 1.30 1.41 1.54 1.69 1.71 1.74 1.72 1.66 1.79 2.00 2.07 2.25 2.35 2.08 1.88 1.71 1.58 1.57 1.31 1.06
0.79 0.94 1.04 1.17 1.21 1.25 1.30 1.22 1.21 1.25 1.25 1.17 1.09 1.09 1.15 1.20 1.23 1.18 1.19 1.17 1.16 1.08 1.01 1.01 1.05 1.12 1.19 1.24 1.39 1.47 1.54 1.57 1.68 1.81 1.95 2.11 2.21 2.11 1.84 1.72 1.63 1.51 1.30
1.03 1.32 1.57 1.74 1.57 1.30 1.18 1.13 1.06 1.06 1.14 1.11 1.04 1.01 1.10 1.11 1.10 1.13 1.10 1.10 1.09 1.00 0.93 0.89 0.84 0.80 0.77 0.80 0.98 1.17 1.27 1.37 1.50 1.66 1.77 1.81 1.89 2.08 2.04 1.84 1.75 1.61 1.41
1.19 1.34 1.53 1.70 1.60 1.28 1.05 1.05 1.06 1.01 0.99 0.99 1.01 1.00 0.99 0.90 0.89 0.94 0.95 0.94 0.95 0.98 0.96 0.88 0.82 0.88 0.86 0.81 0.86 0.92 0.98 1.06 1.18 1.31 1.41 1.53 1.80 2.12 2.15 2.10 1.95 1.78 1.58
1.10 1.09 1.13 1.20 1.21 1.06 0.87 0.83 0.96 1.01 0.95 0.92 0.95 0.94 0.85 0.81 0.77 0.76 0.73 0.66 0.64 0.67 0.75 0.83 0.78 0.77 0.79 0.79 0.84 0.86 0.90 0.92 0.99 1.07 1.17 1.30 1.60 1.97 2.19 2.28 2.18 2.00 1.81
1.07 1.03 0.95 0.88 0.91 0.88 0.80 0.76 0.89 1.03 1.05 1.00 0.86 0.78 0.74 0.71 0.69 0.61 0.57 0.55 0.50 0.50 0.54 0.63 0.63 0.72 0.78 0.80 0.81 0.82 0.86 0.88 0.96 1.09 1.13 1.15 1.32 1.53 1.77 1.96 2.07 2.05 2.01
0.77 0.71 0.66 0.61 0.60 0.63 0.67 0.73 0.83 0.90 1.02 1.11 1.01 0.86 0.77 0.70 0.64 0.57 0.54 0.51 0.49 0.51 0.57 0.70 0.74 0.69 0.66 0.71 0.81 0.83 0.78 0.77 0.82 0.89 0.96 1.03 1.06 1.19 1.36 1.50 1.69 1.89 2.08
0.38 0.37 0.36 0.34 0.33 0.33 0.34 0.43 0.55 0.70 0.89 1.09 1.07 0.92 0.86 0.78 0.65 0.60 0.60 0.58 0.61 0.57 0.58 0.69 0.80 0.87 0.82 0.78 0.86 0.82 0.80 0.80 0.78 0.82 0.81 0.86 0.88 0.92 1.07 1.13 1.36 1.68 1.92
0.25 0.24 0.22 0.20 0.16 0.14 0.16 0.17 0.25 0.42 0.59 0.75 0.81 0.77 0.69 0.61 0.58 0.57 0.55 0.52 0.51 0.47 0.47 0.50 0.58 0.67 0.72 0.91 0.87 0.70 0.67 0.71 0.76 0.81 0.80 0.81 0.74 0.73 0.76 0.87 1.01 1.30 1.49
0.19 0.18 0.19 0.18 0.17 0.16 0.14 0.14 0.17 0.24 0.35 0.47 0.56 0.55 0.49 0.43 0.40 0.45 0.45 0.43 0.39 0.40 0.38 0.37 0.37 0.44 0.59 0.67 0.51 0.49 0.54 0.66 0.76 0.82 0.85 0.82 0.77 0.79 0.79 0.76 0.76 0.84 1.02
0.18 0.16 0.16 0.15 0.13 0.12 0.11 0.11 0.14 0.17 0.18 0.22 0.26 0.27 0.28 0.27 0.29 0.31 0.32 0.33 0.32 0.30 0.29 0.36 0.44 0.46 0.47 0.52 0.42 0.42 0.52 0.71 0.82 0.81 0.76 0.81 0.82 0.86 0.90 0.79 0.81 0.77 0.79
0.09 0.08 0.07 0.06 0.05 0.04 0.04 0.04 0.05 0.05 0.05 0.06 0.08 0.10 0.12 0.14 0.17 0.18 0.21 0.30 0.33 0.34 0.37 0.48 0.56 0.49 0.41 0.44 0.45 0.51 0.66 0.78 0.86 0.82 0.81 0.87 0.88 1.01 1.02 0.90 0.94 0.90 0.85
0.02 0.02 0.01 0.01 0.01 0.00 0.00 0.00 0.00 0.00 0.00 0.00 0.00 0.01 0.01 0.02 0.05 0.08 0.11 0.17 0.24 0.31 0.38 0.40 0.38 0.38 0.43 0.49 0.46 0.58 0.77 0.90 1.00 0.95 0.94 1.11 1.04 1.00 0.92 0.88 1.01 0.99 0.83
0.00 0.00 0.00 0.00 0.00 0.00 0.00 0.00 0.00 0.00 0.00 0.00 0.00 0.00 0.00 0.00 0.01 0.02 0.03 0.06 0.11 0.15 0.17 0.19 0.22 0.29 0.45 0.51 0.52 0.70 0.79 0.86 1.01 1.03 0.99 0.92 1.02 0.94 0.85 0.84 0.90 1.03 0.89
0.00 0.00 0.00 0.00 0.00 0.00 0.00 0.00 0.00 0.00 0.00 0.00 0.00 0.00 0.00 0.00 0.01 0.01 0.02 0.02 0.04 0.06 0.10 0.12 0.16 0.22 0.30 0.37 0.43 0.56 0.68 0.75 0.92 1.00 0.90 0.80 1.01 0.95 0.84 0.76 0.78 0.90 0.94
0.00 0.00 0.00 0.00 0.00 0.00 0.00 0.00 0.00 0.00 0.00 0.00 0.00 0.00 0.00 0.01 0.01 0.01 0.01 0.02 0.03 0.06 0.07 0.11 0.17 0.23 0.27 0.28 0.34 0.42 0.50 0.62 0.80 0.86 0.87 0.88 0.90 0.81 0.75 0.84 0.85 0.85 0.87
0.00 0.00 0.00 0.00 0.00 0.00 0.00 0.00 0.00 0.00 0.00 0.00 0.00 0.00 0.01 0.01 0.01 0.01 0.02 0.02 0.02 0.05 0.08 0.15 0.21 0.24 0.27 0.28 0.34 0.42 0.46 0.55 0.64 0.66 0.70 0.74 0.70 0.69 0.71 0.77 0.85 0.86 0.89
0.00 0.00 0.00 0.00 0.00 0.00 0.00 0.00 0.00 0.00 0.00 0.00 0.00 0.00 0.01 0.01 0.01 0.01 0.01 0.02 0.02 0.04 0.10 0.14 0.17 0.18 0.20 0.23 0.30 0.41 0.49 0.60 0.70 0.71 0.65 0.68 0.67 0.66 0.65 0.68 0.69 0.71 0.70
0.00 0.00 0.00 0.00 0.00 0.00 0.00 0.00 0.00 0.00 0.00 0.00 0.00 0.00 0.01 0.01 0.01 0.02 0.02 0.01 0.01 0.02 0.04 0.05 0.08 0.14 0.17 0.13 0.15 0.24 0.38 0.54 0.74 0.95 0.98 0.98 0.92 0.83 0.71 0.62 0.53 0.49 0.51